Content
SEND FEEDBACK

Daily
Averages
Monthly
Summary
United States of America

UMATAC, GUAM


Home > North America > United States > Guam
Elevation: 190 feet     Latitude: 13 17N     Longitude: 144 40E

WEATHER
 
SELECT A DAY
Number of Records: 354,808;   Date Range: 1/1/95 - 11/27/14
 
SHARE

PRINT THIS DATA

[ ← Previous Day ]
WEATHER ALMANAC - DECEMBER 30, 2013
[ Next Day → ]
[ °C ]   °F
Weather ElementAverageHighLow
Temperature79.4 °F84.2 °F (11:03 am)75.2 °F (12:21 am)
Dewpoint74.8 °F77.5 °F (5:58 am) (7:00 pm)
Humidity90.3 %100 % (12:21 am)79 % (11:03 am)
Barometer29.88 in29.93 in (10:18 am)29.81 in (2:58 pm)
Wind Speed9.8 mph17.3 mph (2:19 pm)
Wind Gust19.6 mph (2:19 pm)
Weather ElementAverage
Visibility9.7 mi
Wind DirectionENE (62.4 °)

Weather ElementTotal
Precipitation0.03 in
Cooling Degree Days14.7 (Base 65)
Growing Degree Days29.7 (Base 50)
Averaged from 55 records on December 30, 2013
WEATHER CONDITIONS BREAKOUT
WIND DIRECTION BREAKOUT
WEATHER BY HOUR - DECEMBER 30, 2013
[ °C ]   °F
Local TimeTemperatureDewpointHumidityBarometerVisibilityWind DirectionWind SpeedGust SpeedPrecipitationEventsConditions
12:21 AM75.2 °F75.2 °F100 %29.91 in5.0 miENE (60°)9.2 mphRainRain
12:31 AM75.2 °F75.2 °F100 %29.90 in8.0 miENE (70°)4.6 mphLight Drizzle
12:36 AM75.2 °F75.2 °F100 %29.91 in10.0 miENE (70°)6.9 mphLight Drizzle
12:37 AM75.2 °F75.2 °F100 %29.91 in10.0 miENE (70°)8.1 mphMostly Cloudy
12:42 AM75.2 °F75.2 °F100 %29.91 in10.0 miENE (70°)6.9 mphMostly Cloudy
12:58 AM77.0 °F0.0 °F29.87 in10.0 miENE (60°)6.9 mph0.02 inScattered Clouds
1:58 AM77.7 °F77.4 °F99 %29.86 in10.0 miNE (50°)9.2 mphScattered Clouds
2:38 AM77.0 °F77.0 °F100 %29.87 in10.0 miENE (60°)10.4 mphMostly Cloudy
2:43 AM77.0 °F77.0 °F100 %29.87 in10.0 miENE (60°)10.4 mphScattered Clouds
2:58 AM77.7 °F77.2 °F98 %29.84 in10.0 miNE (50°)10.4 mphScattered Clouds
3:58 AM77.7 °F77.0 °F98 %29.83 in10.0 miENE (60°)10.4 mphScattered Clouds
4:58 AM77.0 °F76.6 °F99 %29.83 in10.0 miENE (60°)9.2 mphPartly Cloudy
5:28 AM78.8 °F77.0 °F94 %29.87 in10.0 miNE (50°)8.1 mphMostly Cloudy
5:33 AM78.8 °F77.0 °F94 %29.87 in10.0 miENE (60°)10.4 mphScattered Clouds
5:58 AM77.5 °F77.5 °F100 %29.86 in10.0 miENE (60°)6.9 mphPartly Cloudy
6:58 AM77.7 °F76.3 °F95 %29.87 in10.0 miENE (60°)11.5 mphPartly Cloudy
7:33 AM77.0 °F77.0 °F100 %29.91 in10.0 miENE (70°)12.7 mph18.4 mphMostly Cloudy
7:35 AM77.0 °F77.0 °F100 %29.91 in10.0 miENE (70°)12.7 mph18.4 mphLight Drizzle
7:40 AM77.0 °F77.0 °F100 %29.92 in10.0 miENE (70°)10.4 mphLight Drizzle
7:45 AM77.0 °F75.2 °F94 %29.92 in10.0 miENE (70°)9.2 mphScattered Clouds
7:58 AM77.0 °F75.9 °F96 %29.89 in10.0 miENE (60°)10.4 mph0.00 inPartly Cloudy
8:58 AM80.4 °F76.5 °F88 %29.91 in10.0 miENE (60°)10.4 mphMostly Cloudy
9:58 AM82.0 °F76.6 °F84 %29.91 in10.0 miENE (70°)10.4 mphPartly Cloudy
10:18 AM82.4 °F77.0 °F84 %29.93 in10.0 miENE (70°)10.4 mphMostly Cloudy
10:33 AM82.4 °F77.0 °F84 %29.93 in10.0 miENE (60°)11.5 mphMostly Cloudy
10:43 AM82.4 °F77.0 °F84 %29.93 in10.0 miENE (60°)10.4 mphScattered Clouds
10:58 AM83.1 °F76.5 °F80 %29.91 in10.0 miENE (60°)11.5 mphMostly Cloudy
11:03 AM84.2 °F77.0 °F79 %29.93 in10.0 miENE (60°)11.5 mphMostly Cloudy
11:08 AM84.2 °F77.0 °F79 %29.93 in10.0 miENE (70°)10.4 mphMostly Cloudy
11:43 AM82.4 °F77.0 °F84 %29.91 in10.0 miENE (70°)10.4 mphScattered Clouds
11:58 AM83.1 °F76.3 °F80 %29.88 in10.0 miENE (70°)11.5 mphPartly Cloudy
12:58 PM83.1 °F77.0 °F82 %29.86 in10.0 miENE (70°)9.2 mphScattered Clouds
1:08 PM82.4 °F77.0 °F84 %29.87 in10.0 miNE (50°)8.1 mphMostly Cloudy
1:13 PM82.4 °F77.0 °F84 %29.87 in10.0 miNE (50°)10.4 mphMostly Cloudy
1:33 PM82.4 °F75.2 °F79 %29.86 in10.0 miENE (70°)11.5 mphScattered Clouds
1:48 PM82.4 °F77.0 °F84 %29.86 in10.0 miENE (70°)8.1 mphMostly Cloudy
1:58 PM81.9 °F75.7 °F82 %29.82 in10.0 miENE (60°)10.4 mphScattered Clouds
2:03 PM82.4 °F77.0 °F84 %29.85 in10.0 miENE (60°)10.4 mphMostly Cloudy
2:19 PM82.4 °F77.0 °F84 %29.85 in8.0 miENE (70°)17.3 mph19.6 mphRainLight Rain
2:24 PM78.8 °F77.0 °F94 %29.85 in4.0 miEast (90°)12.7 mph19.6 mphRainRain
2:32 PM78.8 °F73.4 °F83 %29.84 in9.0 miEast (90°)4.6 mphMostly Cloudy
2:58 PM80.8 °F74.7 °F82 %29.81 in10.0 miENE (70°)8.1 mph0.01 inMostly Cloudy
3:58 PM81.5 °F76.5 °F85 %29.82 in10.0 miENE (60°)10.4 mphMostly Cloudy
4:58 PM80.1 °F75.9 °F87 %29.83 in10.0 miENE (60°)10.4 mphClear
5:58 PM79.7 °F76.3 °F89 %29.84 in10.0 miNE (50°)6.9 mphScattered Clouds
6:58 PM77.9 °F75.0 °F91 %29.86 in10.0 miENE (60°)9.2 mphClear
7:58 PM78.3 °F75.7 °F92 %29.88 in10.0 miENE (60°)8.1 mphScattered Clouds
8:28 PM78.8 °F75.2 °F89 %29.91 in10.0 miENE (60°)10.4 mphMostly Cloudy
8:43 PM78.8 °F75.2 °F89 %29.92 in10.0 miENE (60°)10.4 mphMostly Cloudy
8:58 PM78.4 °F75.0 °F89 %29.89 in10.0 miNE (50°)9.2 mphScattered Clouds
9:58 PM78.3 °F75.2 °F90 %29.91 in10.0 miENE (60°)8.1 mphPartly Cloudy
10:08 PM78.8 °F75.2 °F89 %29.93 in10.0 miNE (50°)6.9 mphMostly Cloudy
10:38 PM78.8 °F75.2 °F89 %29.92 in10.0 miNE (50°)9.2 mphScattered Clouds
10:58 PM78.6 °F75.6 °F90 %29.89 in10.0 miNE (50°)11.5 mphScattered Clouds
11:58 PM78.6 °F75.4 °F90 %29.87 in10.0 miNE (50°)13.8 mphScattered Clouds
Hourly data recorded from PGUA, located miles away from Umatac, Guam







STORIES FROM OUR PARTNERS